Regional Weather Roundup
Issued by NWS Little Rock, AR

Home | Current Version | Previous Version | Graphics & Text | Print | Product List | Glossary On
Versions: 1 2 3 4 5 6 7 8 9 10 11 12 13 14 15 16 17 18 19 20 21 22 23 24 25 26 27 28 29 30 31 32 33 34 35 36 37 38 39 40 41 42 43 44 45 46 47 48 49 50
000
ASUS44 KLZK 200605
RWRLZK

WEATHER ROUNDUP FOR ARKANSAS
NATIONAL WEATHER SERVICE LITTLE ROCK AR
1200 AM CST MON FEB 20 2017

NOTE: "FAIR" INDICATES FEW OR NO CLOUDS BELOW 12,000 FEET WITH NO
SIGNIFICANT WEATHER AND/OR OBSTRUCTIONS TO VISIBILITY.

ARZ001-003-010-029-200700-
NORTHWEST ARKANSAS

CITY           SKY/WX    TMP DP  RH WIND       PRES   REMARKS
FAYETTEVILLE   MOCLDY    66  51  58 SE9       29.96R
6HR MIN TEMP:  65; 6HR MAX TEMP:  69;

FORT SMITH     MOCLDY    67  53  61 E7        29.93
6HR MIN TEMP:  65; 6HR MAX TEMP:  71;

HARRISON       PTCLDY    57  56  96 SE10      30.01S
6HR MIN TEMP:  56; 6HR MAX TEMP:  66;

BENTONVILLE    PTCLDY    64  54  68 SE12      29.96R
6HR MIN TEMP:  64; 6HR MAX TEMP:  70;

ROGERS         CLOUDY    63  55  75 SE12      29.96S
6HR MIN TEMP:  63; 6HR MAX TEMP:  70;

SILOAM SPGS    MOCLDY    66  52  59 S13G24    29.94R
6HR MIN TEMP:  64; 6HR MAX TEMP:  70;

HIGHFILL       CLOUDY    65  53  65 SE15      29.94S
6HR MIN TEMP:  65; 6HR MAX TEMP:  69;

$$

ARZ004-005-016-200700-
NORTH CENTRAL ARKANSAS

CITY           SKY/WX    TMP DP  RH WIND       PRES   REMARKS
BATESVILLE     CLEAR     57  54  88 E6        30.04F
6HR MIN TEMP:  55; 6HR MAX TEMP:  66;

FLIPPIN        CLEAR     55  50  82 CALM      29.99F
6HR MIN TEMP:  55; 6HR MAX TEMP:  68;

MTN HOME       PTCLDY    59  55  87 S7        30.00F
6HR MIN TEMP:  56; 6HR MAX TEMP:  66;

$$

ARZ040-041-200700-
WEST CENTRAL ARKANSAS

CITY           SKY/WX    TMP DP  RH WIND       PRES   REMARKS
MENA           CLOUDY    63  61  94 CALM      29.98R
MOUNT IDA      CLOUDY    62  54  74 NE3       29.95F
6HR MIN TEMP:  61; 6HR MAX TEMP:  67;

$$

ARZ009-017-025-026-028-200700-
NORTHEAST ARKANSAS

CITY           SKY/WX    TMP DP  RH WIND       PRES   REMARKS
CORNING        FAIR      55  55 100 E6        30.07S
JONESBORO      CLEAR     54  51  90 NE3       30.06S
6HR MIN TEMP:  54; 6HR MAX TEMP:  66;

NEWPORT        CLOUDY    58  54  86 MISG        N/A
6HR MIN TEMP:  55; 6HR MAX TEMP:  65;

WALNUT RIDGE   CLEAR     54  48  82 E6        30.06R
6HR MIN TEMP:  54; 6HR MAX TEMP:  64;

BLYTHEVILLE    CLEAR     59  51  75 SE6       30.08R
6HR MIN TEMP:  57; 6HR MAX TEMP:  67;

$$

ARZ022-023-033-042-044-200700-
CENTRAL ARKANSAS

CITY           SKY/WX    TMP DP  RH WIND       PRES   REMARKS
LITTLE ROCK    PTCLDY    56  56 100 CALM      30.01F
6HR MIN TEMP:  56; 6HR MAX TEMP:  70;

JACKSONVILLE   CLEAR     55  54  99 CALM      30.01S
6HR MIN TEMP:  55; 6HR MAX TEMP:  71;

SEARCY         CLEAR     55  55 100 CALM      30.05S
6HR MIN TEMP:  55; 6HR MAX TEMP:  69;

HOT SPRINGS    PTCLDY    62  55  77 E7        29.99F
6HR MIN TEMP:  59; 6HR MAX TEMP:  72;

RUSSELLVILLE   MOCLDY    64  56  75 E6        29.98F
6HR MIN TEMP:  64; 6HR MAX TEMP:  71;

$$

ARZ036-200700-
EAST ARKANSAS

CITY           SKY/WX    TMP DP  RH WIND       PRES   REMARKS
WEST MEMPHIS   CLEAR     58  51  78 SE5       30.06R
6HR MIN TEMP:  57; 6HR MAX TEMP:  67;

$$

ARZ050-053-066-070-073-200700-
SOUTHWEST ARKANSAS

CITY           SKY/WX    TMP DP  RH WIND       PRES   REMARKS
ARKADELPHIA    FAIR      54  53  97 CALM      30.00S
6HR MIN TEMP:  53; 6HR MAX TEMP:  68;

CAMDEN         CLEAR     54  50  87 SE3       29.99F
TEXARKANA      PTCLDY    65  56  72 SE10      29.96S
6HR MIN TEMP:  65; 6HR MAX TEMP:  71;

EL DORADO      CLEAR     59  52  77 SE3       30.00S
6HR MIN TEMP:  57; 6HR MAX TEMP:  71;

DE QUEEN       CLOUDY    64  58  80 E6        29.94R
6HR MIN TEMP:  61; 6HR MAX TEMP:  67;

$$

ARZ056-057-069-200700-
SOUTHEAST ARKANSAS

CITY           SKY/WX    TMP DP  RH WIND       PRES   REMARKS
PINE BLUFF     PTCLDY    59  56  89 SE6       30.02S
6HR MIN TEMP:  59; 6HR MAX TEMP:  68;

STUTTGART      PTCLDY    63  50  63 SE8       30.04R
6HR MIN TEMP:  63; 6HR MAX TEMP:  70;

MONTICELLO     PTCLDY    60  55  83 CALM      30.02R
6HR MIN TEMP:  59; 6HR MAX TEMP:  74;


$$





USA.gov is the U.S. government's official web portal to all federal, state and local government web resources and services.